Location: Dal�� Lhota
(48.7500°N, 14.0167°E)
Time: 17:57:58
(UTC+00:00)

Vanguard 3 - Pass Details

Date: 03 August 2021
Orbit: 510 x 3260 km, 33.3° (Epoch: 20 September)

Event Time Altitude Azimuth Distance (km) Brightness Sun altitude
Rises 13:28:47 0° 175° (S) 4,817 11.4 47.9°
Reaches altitude 10° 13:34:51 10° 147° (SSE) 4,491 11.1 47.1°
Maximum altitude 13:39:03 12° 127° (SE) 4,713 11.0 46.5°
Drops below altitude 10° 13:43:52 10° 109° (ESE) 5,303 11.1 45.8°
Sets 13:52:59 0° 86° (E) 6,895 11.5 44.5°
